This is the latest recevied weather packets stored in our database for station/object N0ZRD-10. If no packets are shown the sender has not sent any weather packets the latest 10 day(s).
| Time | Temp. | Humidity | Pressure | Rain* | Wind** | Luminosity | Snow |
|---|---|---|---|---|---|---|---|
| 1777745407 | 16.11° C | 19% | - | 0 mm | - | - | - |
| 1777744806 | 16.11° C | 21% | - | 0 mm | - | - | - |
| 1777744205 | 15.56° C | 22% | - | 0 mm | - | - | - |
| 1777743603 | 15° C | 21% | - | 0 mm | - | - | - |
| 1777743003 | 14.44° C | 20% | - | 0 mm | - | - | - |
| 1777741199 | 13.33° C | 24% | - | 0 mm | - | - | - |
| 1777740598 | 13.33° C | 23% | - | 0 mm | - | - | - |
| 1777739998 | 13.33° C | 23% | - | 0 mm | - | - | - |
| 1777739397 | 13.33° C | 22% | - | 0 mm | - | - | - |
| 1777738796 | 12.22° C | 24% | - | 0 mm | - | - | - |
| 1777738195 | 11.67° C | 24% | - | 0 mm | - | - | - |
| 1777737594 | 11.67° C | 27% | - | 0 mm | - | - | - |
| 1777736993 | 12.22° C | 26% | - | 0 mm | - | - | - |
| 1777736392 | 11.67° C | 29% | - | 0 mm | - | - | - |
| 1777735791 | 11.11° C | 28% | - | 0 mm | - | - | - |
| 1777735190 | 11.11° C | 28% | - | 0 mm | - | - | - |
| 1777733988 | 10° C | 31% | - | 0 mm | - | - | - |
| 1777733387 | 9.44° C | 28% | - | 0 mm | - | - | - |
| 1777732785 | 9.44° C | 30% | - | 0 mm | - | - | - |
| 1777732184 | 8.89° C | 31% | - | 0 mm | - | - | - |
| 1777731583 | 8.89° C | 33% | - | 0 mm | - | - | - |
| 1777730982 | 7.78° C | 38% | - | 0 mm | - | - | - |
| 1777730381 | 7.22° C | 40% | - | 0 mm | - | - | - |
| 1777729780 | 7.22° C | 43% | - | 0 mm | - | - | - |
| 1777729179 | 6.67° C | 44% | - | 0 mm | - | - | - |
* Rain latest hour (hover to see other rain measurements)
** Current wind speed in m/s (hover to see current wind gust speed)